Date_Time,Julian_Date,Latitude,Longitude,Instrument_Depth,U,V,Speed,Direction
(yyyy-mm-dd hh:mn:ss UTC),(JD),(+ deg. North),(+ deg. East),(m),(cm/s),(cm/s),(cm/s),(deg True)
1981-05-12 20:30:00 UTC,2444737.354167,29.6650,-93.4789,0037,12.00,-0.21,12.0000,91.0000
1981-05-12 21:00:00 UTC,2444737.375000,29.6650,-93.4789,0037,12.99,-0.45,13.0000,92.0000
1981-05-12 21:30:00 UTC,2444737.395833,29.6650,-93.4789,0037,13.99,0.49,14.0000,88.0000
1981-05-12 22:00:00 UTC,2444737.416667,29.6650,-93.4789,0037,14.92,1.57,15.0000,84.0000
1981-05-12 22:30:00 UTC,2444737.437500,29.6650,-93.4789,0037,14.82,2.35,15.0000,81.0000
1981-05-12 23:00:00 UTC,2444737.458333,29.6650,-93.4789,0037,14.77,2.60,15.0000,80.0000
1981-05-12 23:30:00 UTC,2444737.479167,29.6650,-93.4789,0037,13.90,1.71,14.0000,83.0000
1981-05-13 00:00:00 UTC,2444737.500000,29.6650,-93.4789,0037,12.93,1.36,13.0000,84.0000
1981-05-13 00:30:00 UTC,2444737.520833,29.6650,-93.4789,0037,12.90,1.58,13.0000,83.0000
1981-05-13 01:00:00 UTC,2444737.541667,29.6650,-93.4789,0037,11.95,1.05,12.0000,85.0000
1981-05-13 01:30:00 UTC,2444737.562500,29.6650,-93.4789,0037,10.97,0.77,11.0000,86.0000
1981-05-13 02:00:00 UTC,2444737.583333,29.6650,-93.4789,0037,9.99,0.52,10.0000,87.0000
1981-05-13 02:30:00 UTC,2444737.604167,29.6650,-93.4789,0037,8.99,0.31,9.0000,88.0000
1981-05-13 03:00:00 UTC,2444737.625000,29.6650,-93.4789,0037,7.99,0.42,8.0000,87.0000
1981-05-13 03:30:00 UTC,2444737.645833,29.6650,-93.4789,0037,8.00,0.14,8.0000,89.0000
1981-05-13 04:00:00 UTC,2444737.666667,29.6650,-93.4789,0037,7.99,-0.42,8.0000,93.0000
1981-05-13 04:30:00 UTC,2444737.687500,29.6650,-93.4789,0037,7.94,-0.97,8.0000,97.0000
1981-05-13 05:00:00 UTC,2444737.708333,29.6650,-93.4789,0037,7.94,-0.97,8.0000,97.0000
1981-05-13 05:30:00 UTC,2444737.729167,29.6650,-93.4789,0037,7.98,-0.56,8.0000,94.0000
1981-05-13 06:00:00 UTC,2444737.750000,29.6650,-93.4789,0037,8.00,0.00,8.0000,90.0000
1981-05-13 06:30:00 UTC,2444737.770833,29.6650,-93.4789,0037,9.00,-0.16,9.0000,91.0000
1981-05-13 07:00:00 UTC,2444737.791667,29.6650,-93.4789,0037,9.99,-0.52,10.0000,93.0000
1981-05-13 07:30:00 UTC,2444737.812500,29.6650,-93.4789,0037,11.98,-0.63,12.0000,93.0000
1981-05-13 08:00:00 UTC,2444737.833333,29.6650,-93.4789,0037,11.95,-1.05,12.0000,95.0000
1981-05-13 08:30:00 UTC,2444737.854167,29.6650,-93.4789,0037,12.90,-1.58,13.0000,97.0000
1981-05-13 09:00:00 UTC,2444737.875000,29.6650,-93.4789,0037,12.97,-0.91,13.0000,94.0000
1981-05-13 09:30:00 UTC,2444737.895833,29.6650,-93.4789,0037,13.00,0.00,13.0000,90.0000
1981-05-13 10:00:00 UTC,2444737.916667,29.6650,-93.4789,0037,13.00,0.00,13.0000,90.0000
1981-05-13 10:30:00 UTC,2444737.937500,29.6650,-93.4789,0037,11.98,0.63,12.0000,87.0000
1981-05-13 11:00:00 UTC,2444737.958333,29.6650,-93.4789,0037,11.97,0.84,12.0000,86.0000
1981-05-13 11:30:00 UTC,2444737.979167,29.6650,-93.4789,0037,11.99,0.42,12.0000,88.0000
1981-05-13 12:00:00 UTC,2444738.000000,29.6650,-93.4789,0037,12.98,0.68,13.0000,87.0000
1981-05-13 12:30:00 UTC,2444738.020833,29.6650,-93.4789,0037,12.97,0.91,13.0000,86.0000
1981-05-13 13:00:00 UTC,2444738.041667,29.6650,-93.4789,0037,12.97,0.91,13.0000,86.0000
1981-05-13 13:30:00 UTC,2444738.062500,29.6650,-93.4789,0037,12.95,1.13,13.0000,85.0000
1981-05-13 14:00:00 UTC,2444738.083333,29.6650,-93.4789,0037,12.87,1.81,13.0000,82.0000
1981-05-13 14:30:00 UTC,2444738.104167,29.6650,-93.4789,0037,12.84,2.03,13.0000,81.0000
1981-05-13 15:00:00 UTC,2444738.125000,29.6650,-93.4789,0037,12.93,1.36,13.0000,84.0000
1981-05-13 15:30:00 UTC,2444738.145833,29.6650,-93.4789,0037,11.91,1.46,12.0000,83.0000
1981-05-13 16:00:00 UTC,2444738.166667,29.6650,-93.4789,0037,11.91,1.46,12.0000,83.0000
1981-05-13 16:30:00 UTC,2444738.187500,29.6650,-93.4789,0037,11.99,0.42,12.0000,88.0000
1981-05-13 17:00:00 UTC,2444738.208333,29.6650,-93.4789,0037,11.97,-0.84,12.0000,94.0000
1981-05-13 17:30:00 UTC,2444738.229167,29.6650,-93.4789,0037,10.92,-1.34,11.0000,97.0000
1981-05-13 18:00:00 UTC,2444738.250000,29.6650,-93.4789,0037,8.86,-1.56,9.0000,100.0000
1981-05-13 18:30:00 UTC,2444738.270833,29.6650,-93.4789,0037,8.61,-2.63,9.0000,107.0000
1981-05-13 19:00:00 UTC,2444738.291667,29.6650,-93.4789,0037,8.56,-2.78,9.0000,108.0000
1981-05-13 19:30:00 UTC,2444738.312500,29.6650,-93.4789,0037,9.51,-3.09,10.0000,108.0000
1981-05-13 20:00:00 UTC,2444738.333333,29.6650,-93.4789,0037,11.13,-4.50,12.0000,112.0000
1981-05-13 20:30:00 UTC,2444738.354167,29.6650,-93.4789,0037,10.96,-4.88,12.0000,114.0000
1981-05-13 21:00:00 UTC,2444738.375000,29.6650,-93.4789,0037,10.96,-4.88,12.0000,114.0000
1981-05-13 21:30:00 UTC,2444738.395833,29.6650,-93.4789,0037,10.20,-4.12,11.0000,112.0000
1981-05-13 22:00:00 UTC,2444738.416667,29.6650,-93.4789,0037,9.34,-3.58,10.0000,111.0000
1981-05-13 22:30:00 UTC,2444738.437500,29.6650,-93.4789,0037,8.56,-2.78,9.0000,108.0000
1981-05-13 23:00:00 UTC,2444738.458333,29.6650,-93.4789,0037,8.73,-2.18,9.0000,104.0000
1981-05-13 23:30:00 UTC,2444738.479167,29.6650,-93.4789,0037,7.90,-1.25,8.0000,99.0000
1981-05-14 00:00:00 UTC,2444738.500000,29.6650,-93.4789,0037,8.00,-0.28,8.0000,92.0000
1981-05-14 00:30:00 UTC,2444738.520833,29.6650,-93.4789,0037,8.00,-0.14,8.0000,91.0000
1981-05-14 01:00:00 UTC,2444738.541667,29.6650,-93.4789,0037,7.90,-1.25,8.0000,99.0000
1981-05-14 01:30:00 UTC,2444738.562500,29.6650,-93.4789,0037,5.89,-1.14,6.0000,101.0000
1981-05-14 02:00:00 UTC,2444738.583333,29.6650,-93.4789,0037,6.00,-0.21,6.0000,92.0000
1981-05-14 02:30:00 UTC,2444738.604167,29.6650,-93.4789,0037,5.98,0.52,6.0000,85.0000
1981-05-14 03:00:00 UTC,2444738.625000,29.6650,-93.4789,0037,4.97,0.52,5.0000,84.0000
1981-05-14 03:30:00 UTC,2444738.645833,29.6650,-93.4789,0037,4.99,0.35,5.0000,86.0000
1981-05-14 04:00:00 UTC,2444738.666667,29.6650,-93.4789,0037,4.99,0.26,5.0000,87.0000
1981-05-14 04:30:00 UTC,2444738.687500,29.6650,-93.4789,0037,3.98,0.35,4.0000,85.0000
1981-05-14 05:00:00 UTC,2444738.708333,29.6650,-93.4789,0037,3.93,0.76,4.0000,79.0000
1981-05-14 05:30:00 UTC,2444738.729167,29.6650,-93.4789,0037,4.87,1.12,5.0000,77.0000
1981-05-14 06:00:00 UTC,2444738.750000,29.6650,-93.4789,0037,4.98,0.44,5.0000,85.0000
1981-05-14 06:30:00 UTC,2444738.770833,29.6650,-93.4789,0037,4.95,-0.70,5.0000,98.0000
1981-05-14 07:00:00 UTC,2444738.791667,29.6650,-93.4789,0037,4.73,-1.63,5.0000,109.0000
1981-05-14 07:30:00 UTC,2444738.812500,29.6650,-93.4789,0037,4.46,-2.27,5.0000,117.0000
1981-05-14 08:00:00 UTC,2444738.833333,29.6650,-93.4789,0037,4.33,-2.50,5.0000,120.0000
1981-05-14 08:30:00 UTC,2444738.854167,29.6650,-93.4789,0037,4.10,-2.87,5.0000,125.0000
1981-05-14 09:00:00 UTC,2444738.875000,29.6650,-93.4789,0037,4.86,-5.04,7.0000,136.0000
1981-05-14 09:30:00 UTC,2444738.895833,29.6650,-93.4789,0037,6.36,-6.36,9.0000,135.0000
1981-05-14 10:00:00 UTC,2444738.916667,29.6650,-93.4789,0037,9.71,-7.05,12.0000,126.0000
1981-05-14 10:30:00 UTC,2444738.937500,29.6650,-93.4789,0037,12.44,-8.39,15.0000,124.0000
1981-05-14 11:00:00 UTC,2444738.958333,29.6650,-93.4789,0037,12.00,-7.21,14.0000,121.0000
1981-05-14 11:30:00 UTC,2444738.979167,29.6650,-93.4789,0037,11.28,-4.10,12.0000,110.0000
1981-05-14 12:00:00 UTC,2444739.000000,29.6650,-93.4789,0037,11.78,-2.29,12.0000,101.0000
1981-05-14 12:30:00 UTC,2444739.020833,29.6650,-93.4789,0037,13.90,-1.71,14.0000,97.0000
1981-05-14 13:00:00 UTC,2444739.041667,29.6650,-93.4789,0037,16.83,-2.37,17.0000,98.0000
1981-05-14 13:30:00 UTC,2444739.062500,29.6650,-93.4789,0037,17.78,-2.82,18.0000,99.0000
1981-05-14 14:00:00 UTC,2444739.083333,29.6650,-93.4789,0037,18.90,-1.99,19.0000,96.0000
1981-05-14 14:30:00 UTC,2444739.104167,29.6650,-93.4789,0037,20.00,0.00,20.0000,90.0000
1981-05-14 15:00:00 UTC,2444739.125000,29.6650,-93.4789,0037,21.00,0.00,21.0000,90.0000
1981-05-14 15:30:00 UTC,2444739.145833,29.6650,-93.4789,0037,20.88,-2.20,21.0000,96.0000
1981-05-14 16:00:00 UTC,2444739.166667,29.6650,-93.4789,0037,19.85,-2.44,20.0000,97.0000
1981-05-14 16:30:00 UTC,2444739.187500,29.6650,-93.4789,0037,18.77,2.97,19.0000,81.0000
1981-05-14 17:00:00 UTC,2444739.208333,29.6650,-93.4789,0037,17.02,5.86,18.0000,71.0000
1981-05-14 17:30:00 UTC,2444739.229167,29.6650,-93.4789,0037,14.85,2.09,15.0000,82.0000
1981-05-14 18:00:00 UTC,2444739.250000,29.6650,-93.4789,0037,10.98,0.58,11.0000,87.0000
1981-05-14 18:30:00 UTC,2444739.270833,29.6650,-93.4789,0037,9.98,0.70,10.0000,86.0000
1981-05-14 19:00:00 UTC,2444739.291667,29.6650,-93.4789,0037,9.98,-0.70,10.0000,94.0000
1981-05-14 19:30:00 UTC,2444739.312500,29.6650,-93.4789,0037,11.91,-1.46,12.0000,97.0000
1981-05-14 20:00:00 UTC,2444739.333333,29.6650,-93.4789,0037,13.69,-2.91,14.0000,102.0000
1981-05-14 20:30:00 UTC,2444739.354167,29.6650,-93.4789,0037,14.18,-4.88,15.0000,109.0000
1981-05-14 21:00:00 UTC,2444739.375000,29.6650,-93.4789,0037,16.26,-4.97,17.0000,107.0000
1981-05-14 21:30:00 UTC,2444739.395833,29.6650,-93.4789,0037,19.63,-3.82,20.0000,101.0000
1981-05-14 22:00:00 UTC,2444739.416667,29.6650,-93.4789,0037,21.67,-3.82,22.0000,100.0000
1981-05-14 22:30:00 UTC,2444739.437500,29.6650,-93.4789,0037,21.52,-4.57,22.0000,102.0000
1981-05-14 23:00:00 UTC,2444739.458333,29.6650,-93.4789,0037,18.35,-4.92,19.0000,105.0000
1981-05-14 23:30:00 UTC,2444739.479167,29.6650,-93.4789,0037,17.47,-4.35,18.0000,104.0000
1981-05-15 00:00:00 UTC,2444739.500000,29.6650,-93.4789,0037,17.47,-4.35,18.0000,104.0000
1981-05-15 00:30:00 UTC,2444739.520833,29.6650,-93.4789,0037,17.54,-4.05,18.0000,103.0000
1981-05-15 01:00:00 UTC,2444739.541667,29.6650,-93.4789,0037,17.93,-1.57,18.0000,95.0000
1981-05-15 01:30:00 UTC,2444739.562500,29.6650,-93.4789,0037,18.97,0.99,19.0000,87.0000
1981-05-15 02:00:00 UTC,2444739.583333,29.6650,-93.4789,0037,18.97,0.99,19.0000,87.0000
1981-05-15 02:30:00 UTC,2444739.604167,29.6650,-93.4789,0037,16.98,0.89,17.0000,87.0000
1981-05-15 03:00:00 UTC,2444739.625000,29.6650,-93.4789,0037,14.92,1.57,15.0000,84.0000
1981-05-15 03:30:00 UTC,2444739.645833,29.6650,-93.4789,0037,12.90,1.58,13.0000,83.0000
1981-05-15 04:00:00 UTC,2444739.666667,29.6650,-93.4789,0037,9.99,0.35,10.0000,88.0000
1981-05-15 04:30:00 UTC,2444739.687500,29.6650,-93.4789,0037,8.99,-0.31,9.0000,92.0000
1981-05-15 05:00:00 UTC,2444739.708333,29.6650,-93.4789,0037,6.99,-0.37,7.0000,93.0000
1981-05-15 05:30:00 UTC,2444739.729167,29.6650,-93.4789,0037,5.67,-1.95,6.0000,109.0000
1981-05-15 06:00:00 UTC,2444739.750000,29.6650,-93.4789,0037,3.66,-3.41,5.0000,133.0000
1981-05-15 06:30:00 UTC,2444739.770833,29.6650,-93.4789,0037,1.50,-2.60,3.0000,150.0000
1981-05-15 07:00:00 UTC,2444739.791667,29.6650,-93.4789,0037,0.48,-1.94,2.0000,166.0000
1981-05-15 07:30:00 UTC,2444739.812500,29.6650,-93.4789,0037,0.21,-2.99,3.0000,176.0000
1981-05-15 08:00:00 UTC,2444739.833333,29.6650,-93.4789,0037,0.09,-5.00,5.0000,179.0000
1981-05-15 08:30:00 UTC,2444739.854167,29.6650,-93.4789,0037,-0.73,-5.96,6.0000,187.0000
1981-05-15 09:00:00 UTC,2444739.875000,29.6650,-93.4789,0037,-2.16,-6.66,7.0000,198.0000
1981-05-15 09:30:00 UTC,2444739.895833,29.6650,-93.4789,0037,-4.02,-5.73,7.0000,215.0000
1981-05-15 10:00:00 UTC,2444739.916667,29.6650,-93.4789,0037,-6.22,-5.03,8.0000,231.0000
1981-05-15 10:30:00 UTC,2444739.937500,29.6650,-93.4789,0037,-9.33,-5.83,11.0000,238.0000
1981-05-15 11:00:00 UTC,2444739.958333,29.6650,-93.4789,0037,-11.97,-5.08,13.0000,247.0000
1981-05-15 11:30:00 UTC,2444739.979167,29.6650,-93.4789,0037,-14.62,-3.37,15.0000,257.0000
1981-05-15 12:00:00 UTC,2444740.000000,29.6650,-93.4789,0037,-14.94,-1.31,15.0000,265.0000
1981-05-15 12:30:00 UTC,2444740.020833,29.6650,-93.4789,0037,-15.99,-0.56,16.0000,268.0000
1981-05-15 13:00:00 UTC,2444740.041667,29.6650,-93.4789,0037,-16.99,-0.59,17.0000,268.0000
1981-05-15 13:30:00 UTC,2444740.062500,29.6650,-93.4789,0037,-18.95,1.33,19.0000,274.0000
1981-05-15 14:00:00 UTC,2444740.083333,29.6650,-93.4789,0037,-22.78,3.20,23.0000,278.0000
1981-05-15 14:30:00 UTC,2444740.104167,29.6650,-93.4789,0037,-26.67,4.22,27.0000,279.0000
1981-05-15 15:00:00 UTC,2444740.125000,29.6650,-93.4789,0037,-28.37,6.03,29.0000,282.0000
1981-05-15 15:30:00 UTC,2444740.145833,29.6650,-93.4789,0037,-28.98,7.76,30.0000,285.0000
1981-05-15 16:00:00 UTC,2444740.166667,29.6650,-93.4789,0037,-29.11,7.26,30.0000,284.0000
1981-05-15 16:30:00 UTC,2444740.187500,29.6650,-93.4789,0037,-30.32,6.45,31.0000,282.0000
1981-05-15 17:00:00 UTC,2444740.208333,29.6650,-93.4789,0037,-32.28,6.86,33.0000,282.0000
1981-05-15 17:30:00 UTC,2444740.229167,29.6650,-93.4789,0037,-33.13,7.65,34.0000,283.0000
1981-05-15 18:00:00 UTC,2444740.250000,29.6650,-93.4789,0037,-32.02,7.98,33.0000,284.0000
1981-05-15 18:30:00 UTC,2444740.270833,29.6650,-93.4789,0037,-31.18,7.20,32.0000,283.0000
1981-05-15 19:00:00 UTC,2444740.291667,29.6650,-93.4789,0037,-31.18,7.20,32.0000,283.0000
1981-05-15 19:30:00 UTC,2444740.312500,29.6650,-93.4789,0037,-29.80,8.54,31.0000,286.0000
1981-05-15 20:00:00 UTC,2444740.333333,29.6650,-93.4789,0037,-27.42,9.44,29.0000,289.0000
1981-05-15 20:30:00 UTC,2444740.354167,29.6650,-93.4789,0037,-25.68,8.34,27.0000,288.0000
1981-05-15 21:00:00 UTC,2444740.375000,29.6650,-93.4789,0037,-26.41,5.61,27.0000,282.0000
1981-05-15 21:30:00 UTC,2444740.395833,29.6650,-93.4789,0037,-26.80,3.29,27.0000,277.0000
1981-05-15 22:00:00 UTC,2444740.416667,29.6650,-93.4789,0037,-27.79,3.41,28.0000,277.0000
1981-05-15 22:30:00 UTC,2444740.437500,29.6650,-93.4789,0037,-27.66,4.38,28.0000,279.0000
1981-05-15 23:00:00 UTC,2444740.458333,29.6650,-93.4789,0037,-25.68,4.07,26.0000,279.0000
1981-05-15 23:30:00 UTC,2444740.479167,29.6650,-93.4789,0037,-23.70,3.75,24.0000,279.0000
1981-05-16 00:00:00 UTC,2444740.500000,29.6650,-93.4789,0037,-21.60,4.20,22.0000,281.0000
1981-05-16 00:30:00 UTC,2444740.520833,29.6650,-93.4789,0037,-20.68,3.65,21.0000,280.0000
1981-05-16 01:00:00 UTC,2444740.541667,29.6650,-93.4789,0037,-20.74,3.29,21.0000,279.0000
1981-05-16 01:30:00 UTC,2444740.562500,29.6650,-93.4789,0037,-20.61,4.01,21.0000,281.0000
1981-05-16 02:00:00 UTC,2444740.583333,29.6650,-93.4789,0037,-18.58,3.95,19.0000,282.0000
1981-05-16 02:30:00 UTC,2444740.604167,29.6650,-93.4789,0037,-16.50,4.11,17.0000,284.0000
1981-05-16 03:00:00 UTC,2444740.625000,29.6650,-93.4789,0037,-16.34,4.69,17.0000,286.0000
1981-05-16 03:30:00 UTC,2444740.645833,29.6650,-93.4789,0037,-17.02,5.86,18.0000,289.0000
1981-05-16 04:00:00 UTC,2444740.666667,29.6650,-93.4789,0037,-15.97,5.81,17.0000,290.0000
1981-05-16 04:30:00 UTC,2444740.687500,29.6650,-93.4789,0037,-15.76,6.37,17.0000,292.0000
1981-05-16 05:00:00 UTC,2444740.708333,29.6650,-93.4789,0037,-15.76,6.37,17.0000,292.0000
1981-05-16 05:30:00 UTC,2444740.729167,29.6650,-93.4789,0037,-16.80,6.45,18.0000,291.0000
1981-05-16 06:00:00 UTC,2444740.750000,29.6650,-93.4789,0037,-16.69,6.74,18.0000,292.0000
1981-05-16 06:30:00 UTC,2444740.770833,29.6650,-93.4789,0037,-15.97,5.81,17.0000,290.0000
1981-05-16 07:00:00 UTC,2444740.791667,29.6650,-93.4789,0037,-15.38,4.41,16.0000,286.0000
1981-05-16 07:30:00 UTC,2444740.812500,29.6650,-93.4789,0037,-16.42,4.40,17.0000,285.0000
1981-05-16 08:00:00 UTC,2444740.833333,29.6650,-93.4789,0037,-16.42,4.40,17.0000,285.0000
1981-05-16 08:30:00 UTC,2444740.854167,29.6650,-93.4789,0037,-14.34,4.39,15.0000,287.0000
1981-05-16 09:00:00 UTC,2444740.875000,29.6650,-93.4789,0037,-13.46,3.86,14.0000,286.0000
1981-05-16 09:30:00 UTC,2444740.895833,29.6650,-93.4789,0037,-12.80,2.26,13.0000,280.0000
1981-05-16 10:00:00 UTC,2444740.916667,29.6650,-93.4789,0037,-12.93,1.36,13.0000,276.0000
1981-05-16 10:30:00 UTC,2444740.937500,29.6650,-93.4789,0037,-12.93,1.36,13.0000,276.0000
1981-05-16 11:00:00 UTC,2444740.958333,29.6650,-93.4789,0037,-12.97,0.91,13.0000,274.0000
1981-05-16 11:30:00 UTC,2444740.979167,29.6650,-93.4789,0037,-13.98,-0.73,14.0000,267.0000
1981-05-16 12:00:00 UTC,2444741.000000,29.6650,-93.4789,0037,-12.98,-0.68,13.0000,267.0000
1981-05-16 12:30:00 UTC,2444741.020833,29.6650,-93.4789,0037,-13.00,-0.00,13.0000,270.0000
1981-05-16 13:00:00 UTC,2444741.041667,29.6650,-93.4789,0037,-13.00,-0.23,13.0000,269.0000
1981-05-16 13:30:00 UTC,2444741.062500,29.6650,-93.4789,0037,-14.00,-0.00,14.0000,270.0000
1981-05-16 14:00:00 UTC,2444741.083333,29.6650,-93.4789,0037,-14.94,1.31,15.0000,275.0000
1981-05-16 14:30:00 UTC,2444741.104167,29.6650,-93.4789,0037,-16.91,1.78,17.0000,276.0000
1981-05-16 15:00:00 UTC,2444741.125000,29.6650,-93.4789,0037,-18.90,1.99,19.0000,276.0000
1981-05-16 15:30:00 UTC,2444741.145833,29.6650,-93.4789,0037,-19.85,2.44,20.0000,277.0000
1981-05-16 16:00:00 UTC,2444741.166667,29.6650,-93.4789,0037,-20.84,2.56,21.0000,277.0000
1981-05-16 16:30:00 UTC,2444741.187500,29.6650,-93.4789,0037,-22.65,3.99,23.0000,280.0000
1981-05-16 17:00:00 UTC,2444741.208333,29.6650,-93.4789,0037,-24.15,6.47,25.0000,285.0000
1981-05-16 17:30:00 UTC,2444741.229167,29.6650,-93.4789,0037,-25.23,6.29,26.0000,284.0000
1981-05-16 18:00:00 UTC,2444741.250000,29.6650,-93.4789,0037,-26.59,4.69,27.0000,280.0000
1981-05-16 18:30:00 UTC,2444741.270833,29.6650,-93.4789,0037,-27.39,5.82,28.0000,282.0000
1981-05-16 19:00:00 UTC,2444741.291667,29.6650,-93.4789,0037,-27.17,6.77,28.0000,284.0000
1981-05-16 19:30:00 UTC,2444741.312500,29.6650,-93.4789,0037,-28.64,4.54,29.0000,279.0000
1981-05-16 20:00:00 UTC,2444741.333333,29.6650,-93.4789,0037,-29.71,4.18,30.0000,278.0000
1981-05-16 20:30:00 UTC,2444741.354167,29.6650,-93.4789,0037,-28.98,7.76,30.0000,285.0000
1981-05-16 21:00:00 UTC,2444741.375000,29.6650,-93.4789,0037,-25.53,8.79,27.0000,289.0000
1981-05-16 21:30:00 UTC,2444741.395833,29.6650,-93.4789,0037,-20.54,4.37,21.0000,282.0000
1981-05-16 22:00:00 UTC,2444741.416667,29.6650,-93.4789,0037,-20.97,1.10,21.0000,273.0000
1981-05-16 22:30:00 UTC,2444741.437500,29.6650,-93.4789,0037,-25.98,0.91,26.0000,272.0000
1981-05-16 23:00:00 UTC,2444741.458333,29.6650,-93.4789,0037,-30.92,2.16,31.0000,274.0000
1981-05-16 23:30:00 UTC,2444741.479167,29.6650,-93.4789,0037,-33.81,3.55,34.0000,276.0000
1981-05-17 00:00:00 UTC,2444741.500000,29.6650,-93.4789,0037,-33.92,2.37,34.0000,274.0000
1981-05-17 00:30:00 UTC,2444741.520833,29.6650,-93.4789,0037,-33.00,-0.00,33.0000,270.0000
1981-05-17 01:00:00 UTC,2444741.541667,29.6650,-93.4789,0037,-32.95,1.73,33.0000,273.0000
1981-05-17 01:30:00 UTC,2444741.562500,29.6650,-93.4789,0037,-31.69,4.45,32.0000,278.0000
1981-05-17 02:00:00 UTC,2444741.583333,29.6650,-93.4789,0037,-28.64,4.54,29.0000,279.0000
1981-05-17 02:30:00 UTC,2444741.604167,29.6650,-93.4789,0037,-25.68,4.07,26.0000,279.0000
1981-05-17 03:00:00 UTC,2444741.625000,29.6650,-93.4789,0037,-22.58,4.39,23.0000,281.0000
1981-05-17 03:30:00 UTC,2444741.645833,29.6650,-93.4789,0037,-22.65,3.99,23.0000,280.0000
1981-05-17 04:00:00 UTC,2444741.666667,29.6650,-93.4789,0037,-23.82,2.92,24.0000,277.0000
1981-05-17 04:30:00 UTC,2444741.687500,29.6650,-93.4789,0037,-26.80,3.29,27.0000,277.0000
1981-05-17 05:00:00 UTC,2444741.708333,29.6650,-93.4789,0037,-28.47,5.53,29.0000,281.0000
1981-05-17 05:30:00 UTC,2444741.729167,29.6650,-93.4789,0037,-27.88,7.99,29.0000,286.0000
1981-05-17 06:00:00 UTC,2444741.750000,29.6650,-93.4789,0037,-28.14,7.02,29.0000,284.0000
1981-05-17 06:30:00 UTC,2444741.770833,29.6650,-93.4789,0037,-31.30,6.65,32.0000,282.0000
1981-05-17 07:00:00 UTC,2444741.791667,29.6650,-93.4789,0037,-33.48,5.90,34.0000,280.0000
1981-05-17 07:30:00 UTC,2444741.812500,29.6650,-93.4789,0037,-33.58,5.32,34.0000,279.0000
1981-05-17 08:00:00 UTC,2444741.833333,29.6650,-93.4789,0037,-31.51,5.56,32.0000,280.0000
1981-05-17 08:30:00 UTC,2444741.854167,29.6650,-93.4789,0037,-27.57,4.86,28.0000,280.0000
1981-05-17 09:00:00 UTC,2444741.875000,29.6650,-93.4789,0037,-25.68,4.07,26.0000,279.0000
1981-05-17 09:30:00 UTC,2444741.895833,29.6650,-93.4789,0037,-25.75,3.62,26.0000,278.0000
1981-05-17 10:00:00 UTC,2444741.916667,29.6650,-93.4789,0037,-26.90,2.35,27.0000,275.0000
1981-05-17 10:30:00 UTC,2444741.937500,29.6650,-93.4789,0037,-27.96,1.47,28.0000,273.0000
1981-05-17 11:00:00 UTC,2444741.958333,29.6650,-93.4789,0037,-29.00,0.51,29.0000,271.0000
1981-05-17 11:30:00 UTC,2444741.979167,29.6650,-93.4789,0037,-29.00,-0.51,29.0000,269.0000
1981-05-17 12:00:00 UTC,2444742.000000,29.6650,-93.4789,0037,-28.00,-0.00,28.0000,270.0000
1981-05-17 12:30:00 UTC,2444742.020833,29.6650,-93.4789,0037,-26.85,2.82,27.0000,276.0000
1981-05-17 13:00:00 UTC,2444742.041667,29.6650,-93.4789,0037,-25.81,3.17,26.0000,277.0000
1981-05-17 13:30:00 UTC,2444742.062500,29.6650,-93.4789,0037,-26.93,1.88,27.0000,274.0000
1981-05-17 14:00:00 UTC,2444742.083333,29.6650,-93.4789,0037,-26.96,1.41,27.0000,273.0000
1981-05-17 14:30:00 UTC,2444742.104167,29.6650,-93.4789,0037,-26.93,1.88,27.0000,274.0000
1981-05-17 15:00:00 UTC,2444742.125000,29.6650,-93.4789,0037,-26.85,2.82,27.0000,276.0000
1981-05-17 15:30:00 UTC,2444742.145833,29.6650,-93.4789,0037,-27.79,3.41,28.0000,277.0000
1981-05-17 16:00:00 UTC,2444742.166667,29.6650,-93.4789,0037,-28.78,3.53,29.0000,277.0000
1981-05-17 16:30:00 UTC,2444742.187500,29.6650,-93.4789,0037,-27.66,4.38,28.0000,279.0000
1981-05-17 17:00:00 UTC,2444742.208333,29.6650,-93.4789,0037,-27.57,4.86,28.0000,280.0000
1981-05-17 17:30:00 UTC,2444742.229167,29.6650,-93.4789,0037,-27.66,4.38,28.0000,279.0000
1981-05-17 18:00:00 UTC,2444742.250000,29.6650,-93.4789,0037,-29.63,4.69,30.0000,279.0000
1981-05-17 18:30:00 UTC,2444742.270833,29.6650,-93.4789,0037,-30.77,3.78,31.0000,277.0000
1981-05-17 19:00:00 UTC,2444742.291667,29.6650,-93.4789,0037,-30.88,2.70,31.0000,275.0000
1981-05-17 19:30:00 UTC,2444742.312500,29.6650,-93.4789,0037,-30.96,1.62,31.0000,273.0000
1981-05-17 20:00:00 UTC,2444742.333333,29.6650,-93.4789,0037,-31.96,1.67,32.0000,273.0000
1981-05-17 20:30:00 UTC,2444742.354167,29.6650,-93.4789,0037,-34.91,2.44,35.0000,274.0000
1981-05-17 21:00:00 UTC,2444742.375000,29.6650,-93.4789,0037,-35.91,2.51,36.0000,274.0000
1981-05-17 21:30:00 UTC,2444742.395833,29.6650,-93.4789,0037,-34.95,1.83,35.0000,273.0000
1981-05-17 22:00:00 UTC,2444742.416667,29.6650,-93.4789,0037,-32.98,1.15,33.0000,272.0000
1981-05-17 22:30:00 UTC,2444742.437500,29.6650,-93.4789,0037,-32.00,-0.00,32.0000,270.0000
1981-05-17 23:00:00 UTC,2444742.458333,29.6650,-93.4789,0037,-31.00,-0.54,31.0000,269.0000
1981-05-17 23:30:00 UTC,2444742.479167,29.6650,-93.4789,0037,-31.00,-0.00,31.0000,270.0000
1981-05-18 00:00:00 UTC,2444742.500000,29.6650,-93.4789,0037,-32.00,-0.00,32.0000,270.0000
1981-05-18 00:30:00 UTC,2444742.520833,29.6650,-93.4789,0037,-33.00,-0.00,33.0000,270.0000
1981-05-18 01:00:00 UTC,2444742.541667,29.6650,-93.4789,0037,-33.95,1.78,34.0000,273.0000
1981-05-18 01:30:00 UTC,2444742.562500,29.6650,-93.4789,0037,-34.81,3.66,35.0000,276.0000
1981-05-18 02:00:00 UTC,2444742.583333,29.6650,-93.4789,0037,-35.73,4.39,36.0000,277.0000
1981-05-18 02:30:00 UTC,2444742.604167,29.6650,-93.4789,0037,-36.72,4.51,37.0000,277.0000
1981-05-18 03:00:00 UTC,2444742.625000,29.6650,-93.4789,0037,-37.72,4.63,38.0000,277.0000
1981-05-18 03:30:00 UTC,2444742.645833,29.6650,-93.4789,0037,-38.71,4.75,39.0000,277.0000
1981-05-18 04:00:00 UTC,2444742.666667,29.6650,-93.4789,0037,-40.50,6.41,41.0000,279.0000
1981-05-18 04:30:00 UTC,2444742.687500,29.6650,-93.4789,0037,-41.23,8.01,42.0000,281.0000
1981-05-18 05:00:00 UTC,2444742.708333,29.6650,-93.4789,0037,-41.08,8.73,42.0000,282.0000
1981-05-18 05:30:00 UTC,2444742.729167,29.6650,-93.4789,0037,-40.10,8.52,41.0000,282.0000
1981-05-18 06:00:00 UTC,2444742.750000,29.6650,-93.4789,0037,-39.27,7.63,40.0000,281.0000
1981-05-18 06:30:00 UTC,2444742.770833,29.6650,-93.4789,0037,-40.38,7.12,41.0000,280.0000
1981-05-18 07:00:00 UTC,2444742.791667,29.6650,-93.4789,0037,-41.48,6.57,42.0000,279.0000
1981-05-18 07:30:00 UTC,2444742.812500,29.6650,-93.4789,0037,-43.57,6.12,44.0000,278.0000
1981-05-18 08:00:00 UTC,2444742.833333,29.6650,-93.4789,0037,-44.45,7.04,45.0000,279.0000
1981-05-18 08:30:00 UTC,2444742.854167,29.6650,-93.4789,0037,-46.14,8.97,47.0000,281.0000
1981-05-18 09:00:00 UTC,2444742.875000,29.6650,-93.4789,0037,-47.12,9.16,48.0000,281.0000
1981-05-18 09:30:00 UTC,2444742.895833,29.6650,-93.4789,0037,-46.54,6.54,47.0000,278.0000